| time (UTC) | temp F | wind direction | speed knots | gust knots | rain 1hr in | rain 24hr in | rain mn in | humidity % | barometer mb |
| 20260503013503 | 64 | 315 | 3.5 | 8.7 | 0.00 | 0.00 | 0.00 | 86 | 1016.1 |
| 20260503013003 | 64 | 302 | 3.5 | 6.1 | 0.00 | 0.00 | 0.00 | 86 | 1016.0 |
| 20260503012503 | 64 | 297 | 2.6 | 3.5 | 0.00 | 0.00 | 0.00 | 86 | 1016.2 |
| 20260503012003 | 64 | 300 | 1.7 | 3.5 | 0.00 | 0.00 | 0.00 | 87 | 1016.3 |
| 20260503011503 | 64 | 297 | 1.7 | 7.0 | 0.00 | 0.00 | 0.00 | 87 | 1016.5 |
| 20260503011003 | 64 | 291 | 2.6 | 7.0 | 0.00 | 0.00 | 0.00 | 87 | 1016.3 |
| 20260503010503 | 64 | 301 | 2.6 | 7.0 | 0.00 | 0.00 | 0.00 | 87 | 1016.5 |
| 20260503010213 | 64 | 312 | 3.5 | 7.0 | 0.00 | 0.00 | 0.00 | 87 | 1016.5 |
| 20260503005503 | 64 | 309 | 3.5 | 6.1 | 0.00 | 0.00 | 0.00 | 87 | 1016.5 |
| 20260503005003 | 64 | 296 | 2.6 | 6.1 | 0.00 | 0.00 | 0.00 | 87 | 1016.7 |
| 20260503004503 | 64 | 274 | 2.6 | 5.2 | 0.00 | 0.00 | 0.00 | 87 | 1016.9 |
| 20260503004003 | 64 | 264 | 1.7 | 5.2 | 0.00 | 0.00 | 0.00 | 87 | 1016.9 |
| 20260503003503 | 64 | 251 | 1.7 | 3.5 | 0.00 | 0.00 | 0.00 | 88 | 1017.2 |
| 20260503003003 | 64 | 283 | 1.7 | 6.1 | 0.00 | 0.00 | 0.00 | 88 | 1017.2 |
| 20260503002503 | 64 | 4 | 3.5 | 8.7 | 0.00 | 0.00 | 0.00 | 88 | 1016.8 |
| 20260503002217 | 64 | 4 | 4.3 | 11.3 | 0.00 | 0.00 | 0.00 | 88 | 1016.6 |
| 20260503001503 | 64 | 321 | 4.3 | 11.3 | 0.00 | 0.00 | 0.00 | 88 | 1016.5 |
| 20260503001003 | 64 | 313 | 4.3 | 8.7 | 0.00 | 0.00 | 0.00 | 88 | 1017.0 |
| 20260503000503 | 64 | 328 | 5.2 | 9.6 | 0.00 | 0.00 | 0.00 | 88 | 1017.2 |
| 20260503000003 | 64 | 326 | 5.2 | 9.6 | 0.00 | 0.00 | 0.00 | 88 | 1017.0 |
| 20260502235504 | 64 | 286 | 5.2 | 8.7 | 0.00 | 0.00 | 0.00 | 88 | 1017.3 |
| 20260502235215 | 64 | 263 | 5.2 | 7.8 | 0.00 | 0.00 | 0.00 | 88 | 1017.7 |
| 20260502234713 | 64 | 263 | 4.3 | 7.8 | 0.00 | 0.00 | 0.00 | 88 | 1017.9 |
| 20260502234003 | 64 | 279 | 3.5 | 7.8 | 0.00 | 0.00 | 0.00 | 88 | 1017.9 |
| 20260502233503 | 64 | 287 | 3.5 | 7.8 | 0.00 | 0.00 | 0.00 | 88 | 1018.0 |
| 20260502233004 | 64 | 285 | 4.3 | 7.8 | 0.00 | 0.00 | 0.00 | 88 | 1018.0 |
| 20260502232503 | 64 | 277 | 3.5 | 7.0 | 0.00 | 0.00 | 0.00 | 88 | 1017.9 |
| 20260502232003 | 64 | 278 | 3.5 | 7.8 | 0.00 | 0.00 | 0.00 | 88 | 1017.8 |
| 20260502231504 | 64 | 276 | 2.6 | 7.8 | 0.00 | 0.00 | 0.00 | 88 | 1017.6 |
| 20260502231003 | 64 | 270 | 2.6 | 7.0 | 0.00 | 0.00 | 0.00 | 88 | 1017.9 |
| 20260502230503 | 64 | 276 | 3.5 | 7.0 | 0.00 | 0.00 | 0.00 | 89 | 1017.8 |
| 20260502230003 | 64 | 285 | 4.3 | 7.0 | 0.00 | 0.00 | 0.00 | 89 | 1017.8 |
| 20260502225503 | 64 | 285 | 4.3 | 7.8 | 0.00 | 0.00 | 0.00 | 89 | 1017.8 |
| 20260502225003 | 64 | 281 | 4.3 | 7.8 | 0.00 | 0.00 | 0.00 | 89 | 1017.7 |
| 20260502224503 | 64 | 303 | 4.3 | 7.8 | 0.00 | 0.00 | 0.00 | 89 | 1017.8 |
| 20260502224003 | 64 | 324 | 4.3 | 7.8 | 0.00 | 0.00 | 0.00 | 89 | 1017.4 |
| 20260502223503 | 64 | 319 | 3.5 | 7.8 | 0.00 | 0.00 | 0.00 | 89 | 1017.4 |
| 20260502223213 | 64 | 314 | 3.5 | 7.8 | 0.00 | 0.00 | 0.00 | 89 | 1017.6 |
| 20260502222503 | 64 | 319 | 4.3 | 7.0 | 0.00 | 0.00 | 0.00 | 89 | 1017.5 |
| 20260502222003 | 64 | 324 | 3.5 | 7.0 | 0.00 | 0.00 | 0.00 | 89 | 1017.5 |
| 20260502221503 | 64 | 314 | 3.5 | 6.1 | 0.00 | 0.00 | 0.00 | 89 | 1017.4 |
| 20260502221003 | 64 | 306 | 2.6 | 6.1 | 0.00 | 0.00 | 0.00 | 89 | 1017.5 |
| 20260502220505 | 64 | 310 | 3.5 | 7.0 | 0.00 | 0.00 | 0.00 | 89 | 1017.4 |
| 20260502220004 | 64 | 307 | 3.5 | 7.0 | 0.00 | 0.00 | 0.00 | 89 | 1017.7 |
| 20260502215503 | 64 | 301 | 2.6 | 6.1 | 0.00 | 0.00 | 0.00 | 89 | 1017.8 |
| 20260502215003 | 64 | 315 | 3.5 | 6.1 | 0.00 | 0.00 | 0.00 | 88 | 1017.7 |
| 20260502214503 | 64 | 331 | 3.5 | 7.0 | 0.00 | 0.00 | 0.00 | 88 | 1017.8 |
| 20260502214003 | 64 | 338 | 3.5 | 7.0 | 0.00 | 0.00 | 0.00 | 88 | 1017.9 |
| 20260502213504 | 64 | 338 | 3.5 | 7.0 | 0.00 | 0.00 | 0.00 | 88 | 1017.8 |
| 20260502213003 | 64 | 340 | 4.3 | 8.7 | 0.00 | 0.00 | 0.00 | 88 | 1017.9 |
| 20260502212503 | 64 | 343 | 4.3 | 8.7 | 0.00 | 0.00 | 0.00 | 88 | 1018.1 |
| 20260502212004 | 65 | 345 | 3.5 | 7.0 | 0.00 | 0.00 | 0.00 | 88 | 1018.0 |
| 20260502211503 | 65 | 343 | 4.3 | 7.8 | 0.00 | 0.00 | 0.00 | 88 | 1017.9 |
| 20260502211003 | 65 | 354 | 3.5 | 7.8 | 0.00 | 0.00 | 0.00 | 88 | 1017.9 |
| 20260502210506 | 65 | 20 | 2.6 | 7.0 | 0.00 | 0.00 | 0.00 | 88 | 1017.7 |
| 20260502210003 | 65 | 36 | 2.6 | 7.8 | 0.00 | 0.00 | 0.00 | 88 | 1017.9 |
| 20260502205504 | 65 | 44 | 3.5 | 7.8 | 0.00 | 0.00 | 0.00 | 88 | 1017.9 |
| 20260502205003 | 65 | 48 | 2.6 | 7.8 | 0.00 | 0.00 | 0.00 | 88 | 1017.9 |
| 20260502204503 | 65 | 55 | 1.7 | 12.2 | 0.00 | 0.00 | 0.00 | 88 | 1017.9 |
| 20260502204213 | 65 | 67 | 2.6 | 12.2 | 0.00 | 0.00 | 0.00 | 88 | 1017.9 |
| 20260502203503 | 65 | 80 | 2.6 | 7.8 | 0.00 | 0.00 | 0.00 | 88 | 1017.8 |
| 20260502203003 | 65 | 87 | 2.6 | 7.8 | 0.00 | 0.00 | 0.00 | 88 | 1017.9 |
| 20260502202503 | 65 | 84 | 1.7 | 7.8 | 0.00 | 0.00 | 0.00 | 88 | 1018.3 |
| 20260502202003 | 65 | 92 | 2.6 | 9.6 | 0.00 | 0.00 | 0.00 | 88 | 1017.9 |
| 20260502201503 | 65 | 85 | 3.5 | 11.3 | 0.00 | 0.00 | 0.00 | 89 | 1017.9 |
| 20260502201003 | 65 | 70 | 1.7 | 11.3 | 0.00 | 0.00 | 0.00 | 88 | 1017.7 |
| 20260502200503 | 65 | 53 | 1.7 | 7.8 | 0.00 | 0.00 | 0.00 | 88 | 1017.9 |
| 20260502200003 | 65 | 29 | 3.5 | 7.8 | 0.00 | 0.00 | 0.00 | 88 | 1017.7 |
| 20260502195505 | 65 | 29 | 3.5 | 9.6 | 0.00 | 0.00 | 0.00 | 88 | 1017.5 |
| 20260502195212 | 65 | 23 | 3.5 | 9.6 | 0.00 | 0.00 | 0.00 | 88 | 1017.7 |
| 20260502194503 | 65 | 42 | 3.5 | 7.8 | 0.00 | 0.00 | 0.00 | 88 | 1017.4 |
| 20260502194004 | 65 | 73 | 2.6 | 9.6 | 0.00 | 0.00 | 0.00 | 88 | 1017.2 |
| 20260502193503 | 65 | 66 | 3.5 | 13.9 | 0.00 | 0.00 | 0.00 | 88 | 1017.3 |
| 20260502193003 | 65 | 43 | 5.2 | 13.9 | 0.00 | 0.00 | 0.00 | 88 | 1017.3 |
| 20260502192503 | 65 | 37 | 5.2 | 12.2 | 0.00 | 0.00 | 0.00 | 88 | 1017.4 |
| 20260502192012 | 65 | 42 | 4.3 | 12.2 | 0.00 | 0.00 | 0.00 | 88 | 1017.2 |
| 20260502191503 | 65 | 38 | 5.2 | 15.6 | 0.00 | 0.00 | 0.00 | 88 | 1017.2 |
| 20260502191007 | 65 | 43 | 5.2 | 15.6 | 0.00 | 0.00 | 0.00 | 88 | 1017.1 |
| 20260502190503 | 66 | 69 | 4.3 | 13.0 | 0.00 | 0.00 | 0.00 | 88 | 1017.2 |
| 20260502190004 | 66 | 56 | 5.2 | 14.8 | 0.00 | 0.00 | 0.00 | 87 | 1017.1 |
| 20260502185503 | 66 | 47 | 4.3 | 14.8 | 0.00 | 0.00 | 0.00 | 87 | 1017.3 |
| 20260502185003 | 66 | 38 | 4.3 | 13.9 | 0.00 | 0.00 | 0.00 | 86 | 1017.1 |
| 20260502184503 | 66 | 37 | 5.2 | 13.9 | 0.00 | 0.00 | 0.00 | 86 | 1017.2 |
| 20260502184003 | 66 | 49 | 5.2 | 15.6 | 0.00 | 0.00 | 0.00 | 86 | 1017.2 |
| 20260502183717 | 66 | 49 | 5.2 | 15.6 | 0.00 | 0.00 | 0.00 | 86 | 1017.0 |
| 20260502182503 | 66 | 56 | 4.3 | 16.5 | 0.00 | 0.00 | 0.00 | 86 | 1017.3 |
| 20260502182003 | 66 | 38 | 6.1 | 13.9 | 0.00 | 0.00 | 0.00 | 86 | 1017.2 |
| 20260502181503 | 66 | 34 | 7.0 | 15.6 | 0.00 | 0.00 | 0.00 | 86 | 1017.4 |
| 20260502181217 | 66 | 39 | 6.1 | 18.2 | 0.00 | 0.00 | 0.00 | 85 | 1017.2 |
| 20260502180503 | 66 | 48 | 5.2 | 18.2 | 0.00 | 0.00 | 0.00 | 85 | 1017.3 |
| 20260502164003 | 67 | 69 | 4.3 | 14.8 | 0.00 | 0.00 | 0.00 | 83 | 1017.7 |
| 20260502163503 | 67 | 54 | 6.1 | 15.6 | 0.00 | 0.00 | 0.00 | 83 | 1017.6 |
| 20260502163005 | 68 | 43 | 6.1 | 15.6 | 0.00 | 0.00 | 0.00 | 82 | 1018.0 |
| 20260502162503 | 68 | 76 | 4.3 | 13.0 | 0.00 | 0.00 | 0.00 | 82 | 1018.0 |
| 20260502162003 | 68 | 82 | 4.3 | 11.3 | 0.00 | 0.00 | 0.00 | 82 | 1017.9 |
| 20260502161503 | 68 | 72 | 5.2 | 16.5 | 0.00 | 0.00 | 0.00 | 83 | 1018.0 |
| 20260502161003 | 68 | 63 | 5.2 | 16.5 | 0.00 | 0.00 | 0.00 | 82 | 1017.9 |
| 20260502160503 | 68 | 59 | 5.2 | 13.0 | 0.00 | 0.00 | 0.00 | 82 | 1018.1 |
| 20260502152003 | 68 | 60 | 5.2 | 12.2 | 0.00 | 0.00 | 0.00 | 80 | 1018.5 |
| 20260502151503 | 68 | 67 | 4.3 | 12.2 | 0.00 | 0.00 | 0.00 | 79 | 1018.7 |
| 20260502151214 | 68 | 65 | 3.5 | 9.6 | 0.00 | 0.00 | 0.00 | 80 | 1018.6 |
| 20260502150503 | 69 | 51 | 5.2 | 13.0 | 0.00 | 0.00 | 0.00 | 80 | 1018.8 |
| 20260502130503 | 68 | 92 | 4.3 | 11.3 | 0.00 | 0.00 | 0.00 | 80 | 1020.1 |
| 20260502123503 | 68 | 96 | 6.1 | 13.0 | 0.00 | 0.00 | 0.00 | 81 | 1020.0 |
| 20260502123003 | 68 | 96 | 7.0 | 13.9 | 0.00 | 0.00 | 0.00 | 82 | 1020.0 |
| 20260502122503 | 67 | 96 | 7.8 | 13.9 | 0.00 | 0.00 | 0.00 | 82 | 1020.2 |
| 20260502122215 | 67 | 102 | 7.8 | 13.9 | 0.00 | 0.00 | 0.00 | 82 | 1020.4 |
| 20260502121713 | 68 | 108 | 7.0 | 13.0 | 0.00 | 0.00 | 0.00 | 82 | 1020.3 |
| 20260502121003 | 68 | 106 | 5.2 | 11.3 | 0.00 | 0.00 | 0.00 | 81 | 1020.5 |
| 20260502120714 | 68 | 101 | 4.3 | 11.3 | 0.00 | 0.00 | 0.00 | 81 | 1020.5 |
| 20260502115503 | 68 | 102 | 6.1 | 13.9 | 0.00 | 0.00 | 0.00 | 81 | 1020.3 |
| 20260502115003 | 68 | 99 | 7.0 | 13.9 | 0.00 | 0.00 | 0.00 | 81 | 1020.4 |
| 20260502114503 | 68 | 96 | 6.1 | 13.0 | 0.00 | 0.00 | 0.00 | 80 | 1020.3 |
| 20260502114003 | 68 | 100 | 5.2 | 14.8 | 0.00 | 0.00 | 0.00 | 80 | 1020.5 |
| 20260502113503 | 69 | 76 | 5.2 | 14.8 | 0.00 | 0.00 | 0.00 | 80 | 1020.5 |
| 20260502113003 | 69 | 64 | 4.3 | 13.9 | 0.00 | 0.00 | 0.00 | 80 | 1020.8 |
| 20260502112504 | 69 | 82 | 5.2 | 15.6 | 0.00 | 0.00 | 0.00 | 80 | 1020.7 |
| 20260502112003 | 69 | 78 | 6.1 | 15.6 | 0.00 | 0.00 | 0.00 | 80 | 1020.6 |
| 20260502111713 | 69 | 65 | 4.3 | 14.8 | 0.00 | 0.00 | 0.00 | 80 | 1020.5 |
| 20260502111216 | 69 | 76 | 4.3 | 12.2 | 0.00 | 0.00 | 0.00 | 80 | 1020.7 |
| 20260502110503 | 68 | 95 | 5.2 | 13.0 | 0.00 | 0.00 | 0.00 | 81 | 1020.9 |
| 20260502110217 | 68 | 106 | 6.1 | 13.9 | 0.00 | 0.00 | 0.00 | 81 | 1020.9 |
| 20260502105504 | 68 | 101 | 7.0 | 14.8 | 0.00 | 0.00 | 0.00 | 82 | 1021.1 |
| 20260502105003 | 68 | 80 | 5.2 | 18.2 | 0.00 | 0.00 | 0.00 | 81 | 1020.9 |
| 20260502104504 | 68 | 86 | 5.2 | 18.2 | 0.00 | 0.00 | 0.00 | 82 | 1021.0 |
| 20260502104214 | 68 | 86 | 5.2 | 18.2 | 0.00 | 0.00 | 0.00 | 83 | 1021.0 |
| 20260502103503 | 68 | 83 | 4.3 | 12.2 | 0.00 | 0.00 | 0.00 | 82 | 1021.0 |
| 20260502103003 | 68 | 96 | 5.2 | 14.8 | 0.00 | 0.00 | 0.00 | 81 | 1021.2 |
| 20260502102504 | 68 | 99 | 5.2 | 14.8 | 0.00 | 0.00 | 0.00 | 81 | 1021.1 |
| 20260502102003 | 68 | 89 | 5.2 | 13.9 | 0.00 | 0.00 | 0.00 | 81 | 1021.1 |
| 20260502101503 | 68 | 85 | 5.2 | 13.9 | 0.00 | 0.00 | 0.00 | 81 | 1021.5 |
| 20260502101003 | 67 | 77 | 5.2 | 18.2 | 0.00 | 0.00 | 0.00 | 82 | 1021.2 |
| 20260502100503 | 67 | 87 | 6.1 | 18.2 | 0.00 | 0.00 | 0.00 | 83 | 1021.5 |
| 20260502091503 | 68 | 40 | 5.2 | 13.9 | 0.00 | 0.00 | 0.00 | 80 | 1021.5 |
| 20260502091003 | 67 | 52 | 4.3 | 15.6 | 0.00 | 0.00 | 0.00 | 80 | 1021.5 |
| 20260502090503 | 67 | 52 | 4.3 | 15.6 | 0.00 | 0.00 | 0.00 | 80 | 1021.5 |
| 20260502071504 | 66 | 60 | 3.5 | 8.7 | 0.00 | 0.00 | 0.00 | 86 | 1021.4 |
| 20260502071003 | 66 | 52 | 3.5 | 9.6 | 0.00 | 0.00 | 0.00 | 86 | 1021.6 |
| 20260502070503 | 66 | 42 | 5.2 | 13.9 | 0.00 | 0.00 | 0.00 | 86 | 1021.4 |
| 20260502070215 | 66 | 46 | 4.3 | 13.9 | 0.00 | 0.00 | 0.00 | 86 | 1021.7 |
| 20260502065503 | 66 | 60 | 4.3 | 11.3 | 0.00 | 0.00 | 0.00 | 86 | 1021.8 |
| 20260502065003 | 66 | 59 | 4.3 | 13.0 | 0.00 | 0.00 | 0.00 | 86 | 1021.3 |
| 20260502064503 | 66 | 56 | 4.3 | 13.0 | 0.00 | 0.00 | 0.00 | 86 | 1021.5 |
| 20260502064003 | 66 | 50 | 3.5 | 13.0 | 0.00 | 0.00 | 0.00 | 86 | 1021.4 |
| 20260502063503 | 66 | 52 | 3.5 | 13.0 | 0.00 | 0.00 | 0.00 | 87 | 1021.5 |
| 20260502063212 | 66 | 46 | 3.5 | 11.3 | 0.00 | 0.00 | 0.00 | 87 | 1021.5 |
| 20260502062504 | 65 | 29 | 3.5 | 7.0 | 0.00 | 0.00 | 0.00 | 86 | 1021.4 |
| 20260502062003 | 65 | 33 | 2.6 | 7.0 | 0.00 | 0.00 | 0.00 | 86 | 1021.6 |
| 20260502061503 | 65 | 29 | 2.6 | 7.0 | 0.00 | 0.00 | 0.00 | 86 | 1021.4 |
| 20260502061003 | 65 | 360 | 2.6 | 7.0 | 0.00 | 0.00 | 0.00 | 86 | 1021.3 |
| 20260502060712 | 65 | 352 | 2.6 | 6.1 | 0.00 | 0.00 | 0.00 | 86 | 1021.2 |
| 20260502060003 | 65 | 20 | 2.6 | 7.0 | 0.00 | 0.00 | 0.00 | 86 | 1021.0 |
| 20260502055503 | 65 | 26 | 2.6 | 7.0 | 0.00 | 0.00 | 0.00 | 86 | 1021.1 |
| 20260502055004 | 65 | 8 | 2.6 | 6.1 | 0.00 | 0.00 | 0.00 | 86 | 1021.2 |
| 20260502054714 | 65 | 9 | 2.6 | 6.1 | 0.00 | 0.00 | 0.00 | 86 | 1021.2 |
| 20260502054003 | 65 | 357 | 2.6 | 6.1 | 0.00 | 0.00 | 0.00 | 86 | 1021.3 |
| 20260502053503 | 65 | 347 | 2.6 | 5.2 | 0.00 | 0.00 | 0.00 | 86 | 1021.2 |
| 20260502053004 | 65 | 342 | 2.6 | 5.2 | 0.00 | 0.00 | 0.00 | 86 | 1021.3 |
| 20260502052503 | 65 | 340 | 2.6 | 5.2 | 0.00 | 0.00 | 0.00 | 86 | 1021.2 |
| 20260502052214 | 65 | 331 | 2.6 | 5.2 | 0.00 | 0.00 | 0.00 | 86 | 1021.3 |
| 20260502051504 | 65 | 353 | 3.5 | 7.8 | 0.00 | 0.00 | 0.00 | 86 | 1021.3 |
| 20260502051003 | 65 | 352 | 3.5 | 7.8 | 0.00 | 0.00 | 0.00 | 86 | 1021.3 |
| 20260502050503 | 65 | 352 | 3.5 | 7.8 | 0.00 | 0.00 | 0.00 | 86 | 1021.3 |
| 20260502050003 | 65 | 343 | 3.5 | 7.8 | 0.00 | 0.00 | 0.00 | 86 | 1021.2 |
| 20260502045503 | 65 | 333 | 4.3 | 8.7 | 0.00 | 0.00 | 0.00 | 86 | 1021.2 |
| 20260502045003 | 65 | 348 | 4.3 | 8.7 | 0.00 | 0.00 | 0.00 | 86 | 1021.2 |
| 20260502044504 | 65 | 354 | 4.3 | 7.8 | 0.00 | 0.00 | 0.00 | 86 | 1021.2 |
| 20260502044003 | 65 | 353 | 4.3 | 7.8 | 0.00 | 0.00 | 0.00 | 87 | 1021.5 |
| 20260502043503 | 65 | 347 | 4.3 | 7.0 | 0.00 | 0.00 | 0.00 | 87 | 1021.2 |
| 20260502043003 | 65 | 345 | 4.3 | 7.0 | 0.00 | 0.00 | 0.00 | 87 | 1021.1 |
| 20260502042506 | 65 | 351 | 3.5 | 7.0 | 0.00 | 0.00 | 0.00 | 87 | 1021.4 |
| 20260502042003 | 65 | 353 | 2.6 | 5.2 | 0.00 | 0.00 | 0.00 | 87 | 1021.2 |
| 20260502041503 | 65 | 349 | 3.5 | 6.1 | 0.00 | 0.00 | 0.00 | 87 | 1021.2 |
| 20260502041006 | 65 | 347 | 4.3 | 8.7 | 0.00 | 0.00 | 0.00 | 87 | 1021.1 |
| 20260502040503 | 65 | 345 | 5.2 | 8.7 | 0.00 | 0.00 | 0.00 | 87 | 1021.5 |
| 20260502040006 | 65 | 353 | 4.3 | 9.6 | 0.00 | 0.00 | 0.00 | 87 | 1021.6 |
| 20260502035503 | 65 | 357 | 4.3 | 9.6 | 0.00 | 0.00 | 0.00 | 87 | 1021.5 |
| 20260502035003 | 65 | 345 | 4.3 | 8.7 | 0.00 | 0.00 | 0.00 | 87 | 1021.7 |
| 20260502034503 | 65 | 337 | 4.3 | 8.7 | 0.00 | 0.00 | 0.00 | 87 | 1021.5 |
| 20260502034003 | 65 | 333 | 3.5 | 7.0 | 0.00 | 0.00 | 0.00 | 87 | 1021.7 |
| 20260502033503 | 65 | 339 | 4.3 | 7.0 | 0.00 | 0.00 | 0.00 | 87 | 1021.8 |
| 20260502033003 | 65 | 347 | 4.3 | 7.0 | 0.00 | 0.00 | 0.00 | 87 | 1021.7 |
| 20260502032503 | 65 | 3 | 4.3 | 11.3 | 0.00 | 0.00 | 0.00 | 88 | 1021.7 |
| 20260502032003 | 65 | 13 | 4.3 | 11.3 | 0.00 | 0.00 | 0.00 | 88 | 1021.5 |
| 20260502031505 | 65 | 12 | 4.3 | 9.6 | 0.00 | 0.00 | 0.00 | 88 | 1021.5 |
| 20260502031003 | 65 | 20 | 3.5 | 8.7 | 0.00 | 0.00 | 0.00 | 88 | 1021.5 |
| 20260502030503 | 65 | 36 | 2.6 | 8.7 | 0.00 | 0.00 | 0.00 | 89 | 1021.7 |
| 20260502030003 | 65 | 34 | 3.5 | 8.7 | 0.00 | 0.00 | 0.00 | 89 | 1021.7 |
| 20260502025503 | 65 | 30 | 2.6 | 7.0 | 0.00 | 0.00 | 0.00 | 89 | 1021.6 |
| 20260502025003 | 65 | 28 | 1.7 | 6.1 | 0.00 | 0.00 | 0.00 | 89 | 1021.6 |
| 20260502024504 | 65 | 39 | 1.7 | 6.1 | 0.00 | 0.00 | 0.00 | 89 | 1021.5 |
| 20260502024003 | 65 | 55 | 1.7 | 5.2 | 0.00 | 0.00 | 0.00 | 89 | 1021.1 |
| 20260502023717 | 65 | 52 | 2.6 | 8.7 | 0.00 | 0.00 | 0.00 | 89 | 1021.3 |
| 20260502023003 | 65 | 53 | 2.6 | 8.7 | 0.00 | 0.00 | 0.00 | 89 | 1021.4 |
| 20260502022503 | 65 | 51 | 1.7 | 7.8 | 0.00 | 0.00 | 0.00 | 89 | 1021.5 |
| 20260502022005 | 65 | 73 | 2.6 | 7.8 | 0.00 | 0.00 | 0.00 | 89 | 1021.4 |
| 20260502021503 | 65 | 100 | 3.5 | 7.8 | 0.00 | 0.00 | 0.00 | 89 | 1021.3 |
| 20260502021217 | 65 | 94 | 2.6 | 7.8 | 0.00 | 0.00 | 0.00 | 89 | 1021.3 |
| 20260502020715 | 65 | 71 | 1.7 | 7.0 | 0.00 | 0.00 | 0.00 | 89 | 1021.2 |
| 20260502020003 | 65 | 44 | 1.7 | 6.1 | 0.00 | 0.00 | 0.00 | 88 | 1021.6 |
| 20260502015503 | 65 | 55 | 1.7 | 6.1 | 0.00 | 0.00 | 0.00 | 88 | 1021.8 |
| 20260502015003 | 65 | 68 | 2.6 | 7.8 | 0.00 | 0.00 | 0.00 | 88 | 1021.8 |
| 20260502014503 | 65 | 56 | 2.6 | 7.8 | 0.00 | 0.00 | 0.00 | 88 | 1021.8 |
| 20260502014003 | 65 | 54 | 2.6 | 7.8 | 0.00 | 0.00 | 0.00 | 88 | 1021.9 |